Wind_Speed
121 121 117 113 112 109 107 111 113 114 111 107 103 98 103 105 102 95 93 92 89 83 73 78 76 77 77 78 77 77 78 77 77 70 71 75 79 85 81 76 75 68 61 58
124 118 116 119 120 116 112 107 105 107 108 104 99 95 97 95 94 91 83 79 72 72 73 75 75 78 79 77 77 76 74 73 70 70 75 79 82 77 75 72 64 60 58 55
122 117 119 122 123 119 115 110 105 103 105 101 95 94 88 84 82 79 76 74 74 74 74 75 77 78 75 71 72 71 69 68 69 72 77 79 74 72 69 60 56 55 55 50
119 117 119 121 123 125 119 114 115 110 106 103 98 91 86 80 79 75 75 75 74 74 73 74 75 73 69 71 70 69 70 72 74 76 71 68 69 65 56 53 52 51 47 46
119 117 116 119 119 121 122 119 119 120 119 111 103 95 76 79 74 76 81 79 75 72 67 67 68 70 72 71 71 72 72 74 73 66 65 65 59 54 50 48 48 43 43 45
111 118 118 115 115 117 118 118 117 115 113 114 103 101 75 80 80 83 80 79 76 73 72 73 75 74 71 72 70 69 70 65 61 61 60 56 51 49 45 43 39 39 42 43
103 112 117 116 112 109 109 113 114 114 109 98 107 107 83 85 85 84 82 82 79 81 78 79 76 77 76 75 72 68 61 58 57 54 53 50 46 42 38 34 35 37 40 39
94 103 112 114 111 110 104 104 109 111 104 99 100 93 81 83 82 81 84 83 81 80 77 72 71 70 70 69 65 55 55 52 51 51 46 42 41 36 33 33 34 38 39 32
90 96 103 110 110 111 107 101 100 103 102 101 92 83 84 80 79 82 84 83 73 67 64 63 60 57 55 53 50 49 48 45 46 45 39 35 34 31 32 34 36 38 31 27
82 90 94 104 109 110 109 104 100 95 91 91 87 83 73 73 76 82 76 66 59 58 57 54 48 45 44 43 43 44 41 41 38 32 28 30 29 32 33 33 37 31 26 25
69 84 91 91 100 107 107 104 100 93 84 78 79 77 75 75 74 76 67 59 55 53 49 46 43 41 41 40 39 37 39 40 28 25 26 25 28 31 29 35 31 25 22 23
60 75 86 88 92 96 99 103 100 94 83 75 70 70 71 67 68 74 66 59 52 50 46 44 42 40 38 33 35 36 35 25 22 24 22 23 28 28 30 31 27 20 19 22
52 64 76 85 83 85 89 94 98 95 89 76 67 59 61 61 61 68 58 54 53 49 46 43 37 37 32 32 33 36 25 16 19 22 20 25 26 26 28 26 22 17 17 22
46 56 66 76 78 76 76 81 87 89 86 80 62 63 57 55 57 62 47 49 47 43 40 38 35 33 32 27 28 27 21 18 19 19 20 25 24 25 26 21 16 13 14 20
37 44 52 58 66 71 69 67 71 73 83 72 71 65 60 56 55 45 39 41 42 40 38 38 36 31 30 22 23 17 18 17 16 18 22 27 24 24 23 16 12 10 13 19
26 35 41 46 52 57 63 61 56 62 72 77 74 66 63 60 57 43 36 39 44 42 42 41 37 32 30 20 21 17 17 17 22 23 27 30 25 23 21 14 11 11 13 17
21 27 34 36 38 47 59 62 58 57 61 72 75 71 69 66 64 47 39 45 47 45 43 40 36 31 25 21 21 18 19 21 25 28 27 26 24 23 21 14 12 9 9 15
15 19 25 31 33 39 50 55 59 56 59 65 77 78 76 74 66 51 44 46 47 46 43 39 35 29 21 21 19 17 19 17 18 19 25 23 23 23 18 17 12 8 8 11
15 22 25 30 35 39 47 56 61 63 62 62 72 79 76 77 70 53 47 48 48 45 42 36 31 29 23 19 19 17 17 13 16 19 27 22 22 22 16 16 11 6 7 10
16 19 22 29 36 39 43 53 59 63 64 62 68 79 79 83 65 61 56 54 50 45 41 37 34 32 24 21 20 17 16 12 14 22 24 20 22 20 13 10 8 7 6 9
16 17 19 24 31 37 42 49 58 64 69 66 68 77 84 86 68 60 55 56 53 47 42 38 37 30 24 22 18 19 13 11 18 23 20 20 21 15 10 7 6 8 7 9
17 19 18 20 27 33 38 46 57 66 66 67 70 79 87 83 69 62 60 58 52 46 42 41 33 28 22 19 18 15 10 10 14 20 16 19 19 11 9 6 7 8 5 8
15 14 18 18 20 24 31 40 50 58 59 63 69 76 84 71 65 62 64 61 51 44 44 40 35 31 26 21 21 16 11 10 15 14 16 19 14 9 8 6 5 6 2 5
14 16 18 18 17 18 24 32 43 55 59 59 61 74 57 66 65 64 61 49 44 42 39 38 35 35 26 22 24 18 11 12 15 10 14 16 11 8 6 3 5 6 7 7
14 16 17 16 17 18 23 31 42 52 52 54 52 54 63 66 64 62 54 52 52 46 37 25 29 27 26 23 22 20 13 11 8 7 12 12 8 6 3 1 7 9 10 8
13 19 20 24 27 28 31 38 48 45 39 39 50 59 63 62 63 58 57 55 43 45 44 36 29 30 30 25 26 19 13 9 5 4 9 9 5 5 1 5 10 11 12 9
Wind_Direction
238 239 241 242 240 237 241 241 242 243 245 246 247 245 248 251 254 257 261 261 263 266 265 270 272 274 275 277 284 288 291 295 297 299 299 301 304 305 303 303 306 311 309 307
238 239 239 240 238 238 239 241 243 244 244 244 248 247 248 251 254 257 260 261 261 262 267 270 272 274 277 281 285 289 292 295 298 298 299 303 303 302 302 307 311 309 305 302
240 238 237 238 238 239 239 239 241 244 247 245 245 246 247 249 252 254 256 258 263 268 270 271 273 276 281 284 287 290 292 295 298 300 300 301 300 299 303 310 310 302 300 301
242 240 238 237 238 239 239 240 238 240 244 248 249 245 247 250 252 253 253 257 267 270 270 272 276 280 281 284 287 291 291 296 296 298 298 298 297 301 309 311 303 299 301 305
238 239 238 238 238 239 239 240 239 240 242 244 249 250 250 254 255 255 254 259 264 266 269 275 277 276 278 282 285 289 293 294 295 296 297 296 298 306 310 302 298 299 306 305
233 234 236 238 238 238 238 239 240 240 241 242 244 250 243 248 250 252 258 260 262 265 267 273 273 274 278 281 285 291 292 292 293 294 294 296 303 308 302 295 299 307 304 304
230 231 234 234 237 238 240 241 241 241 242 242 243 246 242 244 250 254 257 259 260 264 266 273 273 272 276 280 284 288 287 289 291 291 291 297 304 299 292 297 308 305 306 305
230 229 229 232 233 236 237 238 241 242 242 241 243 244 246 243 245 248 253 256 261 264 268 268 269 271 276 279 282 281 283 288 288 288 291 298 296 291 295 306 307 309 307 308
227 228 228 229 231 232 234 236 238 240 241 241 243 243 241 243 243 242 246 254 262 262 262 264 268 271 273 274 276 279 280 282 279 285 291 288 290 296 306 311 310 309 310 311
226 228 229 228 227 229 232 234 234 236 238 239 240 241 242 242 240 242 246 252 255 257 258 261 264 265 266 271 272 274 277 274 281 285 285 290 297 306 311 313 313 310 312 321
226 226 228 229 228 228 230 233 235 236 236 235 236 237 237 235 237 244 245 246 247 249 252 256 258 261 269 269 265 268 269 274 279 283 288 295 306 309 311 315 313 306 313 322
224 225 227 228 227 229 229 231 233 235 234 233 233 235 236 238 239 243 244 244 246 248 253 254 259 266 262 256 258 260 267 269 278 283 292 303 310 306 311 314 307 304 317 324
227 225 226 228 228 228 228 229 231 231 232 231 230 231 232 235 235 239 241 242 241 243 246 252 252 249 247 246 248 257 266 269 285 288 299 310 309 306 312 312 296 310 322 330
228 226 224 226 227 229 229 229 228 229 230 230 225 225 228 229 231 233 234 235 232 234 235 233 232 235 232 237 248 267 263 265 290 298 305 314 307 313 316 306 292 311 325 335
226 230 229 228 224 225 228 229 227 226 227 225 223 223 225 225 228 230 222 220 217 216 217 219 224 222 228 230 247 264 251 270 287 305 312 317 311 316 320 306 286 296 322 339
220 223 231 228 225 221 222 226 224 221 223 223 222 217 218 221 221 224 214 207 204 205 208 213 216 213 217 231 252 257 255 270 273 297 305 311 312 318 326 308 278 284 321 340
216 212 216 222 220 217 219 216 215 215 215 216 214 209 209 213 213 215 203 196 197 199 206 209 214 210 220 237 247 258 259 257 270 291 304 308 313 321 326 305 278 279 325 345
200 204 207 210 214 210 210 208 205 207 210 207 209 203 204 208 209 209 198 198 201 200 204 210 216 215 228 238 247 252 255 267 285 292 317 309 318 325 316 296 274 259 317 336
188 195 197 197 201 201 203 202 199 199 205 203 201 202 202 208 209 205 198 199 203 201 204 208 218 226 225 244 245 245 253 263 294 310 315 314 324 326 314 290 250 227 316 321
185 193 192 194 193 196 198 198 196 193 197 197 196 197 198 206 204 204 199 201 204 204 206 211 221 227 225 238 242 238 250 275 303 312 309 324 328 330 318 288 231 208 288 318
178 185 188 194 195 193 193 194 191 192 193 191 192 193 195 203 201 202 201 205 207 208 210 214 219 225 227 221 240 237 251 289 307 305 311 329 333 328 315 288 228 217 262 311
182 179 180 184 191 193 190 191 191 194 190 186 187 189 195 198 199 199 200 205 206 207 209 212 211 218 204 218 234 234 245 290 309 309 328 332 331 319 312 279 229 234 258 336
169 172 165 179 192 192 190 189 190 191 189 189 186 188 197 191 195 197 202 205 204 205 208 208 213 212 216 228 226 224 244 284 309 316 337 334 322 311 316 286 211 222 221 50
156 157 164 172 175 174 181 183 183 184 185 188 188 192 187 189 190 193 199 195 191 189 198 208 211 216 224 218 221 223 245 274 302 328 337 336 318 308 314 302 197 196 163 126
153 156 149 145 142 146 158 162 170 175 179 184 184 176 180 183 187 190 184 178 174 170 183 202 203 206 212 215 216 216 242 268 288 342 337 334 307 296 312 178 166 163 142 135
162 152 142 129 124 131 140 155 160 163 167 172 166 171 176 179 182 179 175 171 167 179 173 199 203 215 194 196 202 204 225 264 243 355 332 336 299 263 135 135 166 163 153 137
Height
10554 10563 10585 10612 10619 10626 10635 10645 10658 10667 10675 10673 10700 10724 10727 10728 10738 10749 10758 10762 10766 10771 10768 10769 10770 10771 10773 10773 10773 10771 10769 10766 10761 10756 10750 10743 10735 10727 10719 10713 10708 10701 10693 10688
10525 10552 10572 10572 10583 10598 10610 10625 10637 10644 10653 10668 10680 10705 10712 10719 10729 10738 10744 10749 10753 10755 10756 10758 10757 10759 10760 10761 10760 10759 10757 10754 10750 10745 10737 10730 10723 10715 10709 10704 10698 10690 10683 10677
10505 10536 10539 10545 10557 10573 10591 10607 10620 10626 10630 10650 10668 10682 10696 10710 10720 10728 10734 10735 10736 10740 10744 10744 10746 10747 10749 10749 10748 10747 10744 10742 10738 10732 10726 10719 10711 10705 10700 10696 10688 10680 10674 10668
10480 10503 10515 10522 10535 10549 10567 10586 10599 10609 10615 10633 10645 10672 10683 10698 10710 10717 10720 10720 10721 10726 10729 10731 10734 10737 10737 10736 10736 10734 10733 10730 10725 10722 10716 10708 10702 10697 10693 10687 10678 10671 10665 10660
10454 10473 10487 10496 10513 10525 10547 10561 10574 10587 10599 10614 10632 10648 10693 10685 10700 10700 10699 10705 10712 10715 10720 10722 10723 10725 10725 10726 10726 10724 10722 10717 10713 10709 10703 10698 10692 10689 10684 10677 10670 10664 10660 10654
10423 10439 10455 10475 10489 10505 10521 10536 10550 10564 10581 10601 10627 10628 10688 10674 10681 10680 10688 10694 10700 10703 10708 10711 10712 10714 10716 10717 10717 10715 10711 10706 10702 10698 10692 10688 10685 10681 10675 10669 10664 10659 10654 10648
10395 10411 10433 10449 10467 10486 10506 10519 10529 10543 10566 10606 10610 10616 10675 10658 10669 10670 10676 10678 10686 10687 10695 10701 10702 10704 10706 10706 10707 10705 10700 10697 10693 10687 10684 10682 10679 10674 10668 10663 10659 10654 10648 10641
10373 10388 10406 10426 10450 10465 10484 10498 10514 10528 10554 10581 10588 10617 10655 10645 10650 10661 10653 10659 10669 10680 10688 10689 10690 10694 10696 10696 10695 10694 10690 10689 10683 10680 10677 10675 10672 10666 10662 10658 10653 10647 10641 10634
10355 10368 10382 10404 10426 10442 10461 10481 10496 10508 10533 10557 10580 10611 10620 10628 10633 10632 10634 10646 10665 10672 10675 10677 10680 10684 10686 10687 10685 10684 10681 10680 10676 10674 10672 10668 10662 10658 10654 10649 10645 10639 10633 10628
10341 10355 10366 10378 10402 10421 10441 10460 10476 10493 10518 10545 10569 10589 10608 10610 10609 10603 10625 10648 10657 10660 10662 10666 10672 10675 10676 10677 10675 10675 10674 10672 10670 10668 10665 10660 10656 10651 10646 10643 10637 10631 10627 10622
10327 10339 10351 10367 10387 10401 10422 10444 10461 10483 10508 10533 10554 10571 10580 10587 10594 10594 10619 10637 10642 10647 10652 10657 10662 10665 10668 10668 10666 10668 10667 10666 10665 10662 10659 10655 10650 10646 10642 10637 10632 10627 10623 10617
10314 10324 10337 10349 10368 10388 10410 10429 10448 10467 10497 10519 10539 10556 10565 10578 10585 10579 10607 10622 10632 10637 10644 10648 10652 10656 10658 10659 10660 10661 10661 10661 10659 10657 10654 10650 10646 10642 10638 10633 10628 10624 10619 10614
10306 10312 10324 10337 10355 10372 10392 10411 10430 10455 10477 10506 10526 10550 10555 10563 10571 10560 10598 10611 10618 10624 10633 10637 10643 10646 10650 10652 10654 10655 10655 10655 10654 10652 10649 10645 10641 10638 10633 10628 10624 10620 10616 10612
10293 10301 10310 10323 10345 10363 10380 10396 10417 10440 10465 10493 10525 10530 10544 10551 10553 10550 10589 10598 10603 10612 10621 10627 10633 10637 10642 10645 10648 10648 10649 10650 10649 10646 10644 10640 10636 10633 10628 10623 10620 10617 10614 10611
10288 10295 10304 10318 10334 10353 10369 10385 10406 10431 10455 10480 10507 10518 10531 10536 10541 10560 10577 10584 10591 10600 10611 10618 10624 10630 10636 10639 10642 10642 10643 10644 10644 10641 10638 10635 10631 10627 10623 10619 10616 10615 10613 10609
10287 10293 10299 10311 10326 10345 10359 10378 10399 10417 10441 10468 10489 10508 10517 10523 10528 10554 10567 10574 10581 10593 10602 10609 10616 10622 10629 10631 10634 10635 10636 10638 10638 10636 10633 10630 10626 10621 10617 10614 10613 10612 10610 10608
10283 10287 10295 10305 10319 10333 10345 10363 10382 10401 10424 10447 10469 10488 10495 10504 10514 10543 10557 10566 10574 10585 10594 10603 10611 10617 10622 10625 10628 10629 10631 10632 10632 10631 10628 10624 10620 10615 10611 10610 10610 10609 10608 10607
10281 10286 10292 10301 10310 10322 10333 10350 10367 10391 10408 10427 10445 10464 10476 10487 10507 10535 10551 10560 10569 10579 10589 10597 10603 10611 10616 10620 10623 10624 10626 10627 10627 10626 10622 10618 10614 10610 10606 10606 10606 10607 10606 10605
10278 10281 10287 10294 10302 10312 10322 10334 10352 10370 10391 10412 10432 10454 10473 10478 10501 10532 10547 10555 10563 10574 10584 10593 10600 10606 10611 10615 10618 10620 10621 10622 10622 10620 10617 10613 10609 10604 10601 10600 10601 10603 10604 10604
10278 10281 10286 10292 10298 10306 10317 10328 10344 10361 10378 10398 10418 10439 10462 10467 10507 10518 10532 10544 10557 10570 10579 10588 10594 10599 10605 10610 10614 10615 10618 10618 10617 10616 10612 10608 10604 10599 10597 10597 10598 10600 10602 10602
10282 10284 10289 10294 10299 10304 10313 10324 10340 10355 10364 10384 10406 10427 10448 10461 10496 10513 10531 10539 10550 10565 10576 10583 10587 10595 10601 10606 10610 10611 10614 10614 10614 10611 10608 10604 10599 10596 10595 10594 10595 10598 10599 10599
10285 10288 10293 10298 10301 10307 10314 10324 10335 10345 10362 10378 10397 10418 10432 10455 10487 10507 10520 10530 10546 10561 10572 10576 10585 10590 10598 10602 10605 10608 10610 10610 10610 10607 10603 10599 10595 10593 10593 10592 10593 10596 10598 10597
10292 10296 10298 10302 10306 10312 10319 10326 10335 10353 10370 10382 10395 10413 10424 10463 10483 10502 10512 10525 10542 10556 10564 10573 10580 10587 10593 10598 10601 10604 10606 10607 10606 10602 10599 10596 10593 10592 10591 10590 10591 10594 10597 10597
10300 10302 10304 10307 10312 10316 10322 10329 10340 10354 10369 10384 10399 10408 10444 10460 10480 10493 10507 10526 10538 10548 10560 10567 10574 10581 10588 10593 10596 10600 10604 10604 10602 10598 10596 10593 10592 10591 10590 10589 10590 10593 10597 10599
10308 10310 10312 10315 10318 10323 10327 10334 10346 10360 10374 10388 10405 10423 10439 10457 10475 10490 10506 10520 10531 10542 10554 10563 10570 10577 10583 10589 10593 10597 10599 10599 10597 10595 10594 10591 10590 10590 10589 10587 10589 10592 10596 10598
10315 10317 10319 10322 10326 10330 10336 10345 10355 10369 10384 10398 10411 10424 10439 10455 10471 10488 10504 10516 10527 10537 10548 10560 10567 10571 10576 10584 10588 10593 10595 10595 10593 10592 10592 10590 10590 10590 10588 10587 10588 10592 10595 10597